Stündliche Wetter Otochnaya Sloboda

Heute, 15 April, Donnerstag

Zeit Temperatur Niederschläge Wind Luftdruck Luftfeuchtigkeit
00:00 +8°C° 0 mm 2 m/S 746 mmHg 91%
01:00 +8°C° 0 mm 2 m/S 746 mmHg 92%
02:00 +8°C° 0 mm 2 m/S 746 mmHg 92%
03:00 +8°C° 0 mm 3 m/S 746 mmHg 93%
04:00 +7°C° 0 mm 3 m/S 746 mmHg 94%
05:00 +7°C° 0 mm 3 m/S 746 mmHg 95%
06:00 +7°C° 0.1 mm 3 m/S 746 mmHg 95%
07:00 +6°C° 0.1 mm 4 m/S 746 mmHg 94%
08:00 +6°C° 0.1 mm 4 m/S 746 mmHg 93%
09:00 +6°C° 1.1 mm 4 m/S 746 mmHg 93%
10:00 +6°C° 1.1 mm 4 m/S 746 mmHg 94%
11:00 +5°C° 1.1 mm 4 m/S 746 mmHg 94%
12:00 +5°C° 1.2 mm 5 m/S 745 mmHg 94%
13:00 +5°C° 1.2 mm 5 m/S 745 mmHg 94%
14:00 +5°C° 1.2 mm 5 m/S 745 mmHg 94%
15:00 +6°C° 0.3 mm 5 m/S 745 mmHg 94%
16:00 +6°C° 0.3 mm 5 m/S 744 mmHg 94%
17:00 +5°C° 0.3 mm 6 m/S 744 mmHg 93%
18:00 +5°C° 0.8 mm 6 m/S 744 mmHg 94%
19:00 +5°C° 0.8 mm 6 m/S 744 mmHg 94%
20:00 +5°C° 0.8 mm 6 m/S 744 mmHg 95%
21:00 +6°C° 1.1 mm 5 m/S 744 mmHg 95%
22:00 +6°C° 1.1 mm 5 m/S 744 mmHg 96%
23:00 +6°C° 1.1 mm 5 m/S 743 mmHg 96%

Morgen, 16 April, Freitag

Zeit Temperatur Niederschläge Wind Luftdruck Luftfeuchtigkeit
00:00 +7°C° 0 mm 4 m/S 743 mmHg 96%
01:00 +8°C° 0 mm 3 m/S 744 mmHg 96%
02:00 +8°C° 0 mm 3 m/S 744 mmHg 96%
03:00 +7°C° 0 mm 3 m/S 744 mmHg 96%
04:00 +5°C° 0 mm 3 m/S 744 mmHg 96%
05:00 +6°C° 0 mm 2 m/S 744 mmHg 96%
06:00 +7°C° 0.1 mm 3 m/S 744 mmHg 94%
07:00 +8°C° 0.1 mm 3 m/S 744 mmHg 91%
08:00 +8°C° 0.1 mm 4 m/S 744 mmHg 89%
09:00 +10°C° 0.4 mm 4 m/S 745 mmHg 83%
10:00 +10°C° 0.4 mm 5 m/S 745 mmHg 76%
11:00 +13°C° 0.4 mm 6 m/S 745 mmHg 70%
12:00 +13°C° 0.2 mm 6 m/S 745 mmHg 65%
13:00 +13°C° 0.2 mm 6 m/S 745 mmHg 61%
14:00 +14°C° 0.2 mm 6 m/S 745 mmHg 56%
15:00 +14°C° 0.2 mm 5 m/S 745 mmHg 59%
16:00 +13°C° 0.2 mm 4 m/S 745 mmHg 62%
17:00 +13°C° 0.2 mm 4 m/S 746 mmHg 64%
18:00 +11°C° 0.4 mm 3 m/S 746 mmHg 73%
19:00 +10°C° 0.4 mm 3 m/S 746 mmHg 81%
20:00 +8°C° 0.4 mm 3 m/S 747 mmHg 89%
21:00 +8°C° 0 mm 3 m/S 747 mmHg 91%
22:00 +7°C° 0 mm 3 m/S 747 mmHg 93%
23:00 +7°C° 0 mm 3 m/S 747 mmHg 94%

übermorgen, 17 April, Samstag

Zeit Temperatur Niederschläge Wind Luftdruck Luftfeuchtigkeit
00:00 +7°C° 0 mm 3 m/S 747 mmHg 95%
01:00 +6°C° 0 mm 2 m/S 748 mmHg 95%
02:00 +6°C° 0 mm 2 m/S 748 mmHg 95%
03:00 +6°C° 0 mm 2 m/S 748 mmHg 95%
04:00 +5°C° 0 mm 2 m/S 748 mmHg 94%
05:00 +5°C° 0 mm 2 m/S 749 mmHg 94%
06:00 +6°C° 0 mm 2 m/S 749 mmHg 89%
07:00 +8°C° 0 mm 2 m/S 749 mmHg 84%
08:00 +9°C° 0 mm 2 m/S 750 mmHg 80%
09:00 +10°C° 0.1 mm 2 m/S 750 mmHg 74%
10:00 +11°C° 0.1 mm 3 m/S 750 mmHg 69%
11:00 +13°C° 0.1 mm 3 m/S 750 mmHg 64%
12:00 +13°C° 0.1 mm 4 m/S 750 mmHg 59%
13:00 +14°C° 0.1 mm 4 m/S 750 mmHg 55%
14:00 +15°C° 0.1 mm 4 m/S 750 mmHg 51%
15:00 +14°C° 0.1 mm 4 m/S 750 mmHg 54%
16:00 +14°C° 0.1 mm 4 m/S 750 mmHg 57%
17:00 +14°C° 0.1 mm 3 m/S 750 mmHg 60%
18:00 +13°C° 0.1 mm 3 m/S 750 mmHg 67%
19:00 +11°C° 0.1 mm 3 m/S 750 mmHg 74%
20:00 +10°C° 0.1 mm 3 m/S 751 mmHg 82%
21:00 +10°C° 0.6 mm 3 m/S 751 mmHg 86%
22:00 +10°C° 0.6 mm 2 m/S 751 mmHg 90%
23:00 +9°C° 0.6 mm 2 m/S 751 mmHg 94%

18 April, Sonntag

Zeit Temperatur Niederschläge Wind Luftdruck Luftfeuchtigkeit
00:00 +9°C° 1.5 mm 2 m/S 751 mmHg 94%
01:00 +9°C° 1.5 mm 2 m/S 751 mmHg 95%
02:00 +9°C° 1.5 mm 2 m/S 750 mmHg 95%
03:00 +9°C° 0.2 mm 2 m/S 751 mmHg 95%
04:00 +9°C° 0.2 mm 1 m/S 751 mmHg 95%
05:00 +9°C° 0.2 mm 1 m/S 751 mmHg 94%
06:00 +9°C° 0.2 mm 1 m/S 751 mmHg 94%
07:00 +9°C° 0.2 mm 1 m/S 751 mmHg 93%
08:00 +9°C° 0.2 mm 1 m/S 751 mmHg 92%
09:00 +10°C° 0.3 mm 1 m/S 752 mmHg 90%
10:00 +10°C° 0.3 mm 1 m/S 752 mmHg 89%
11:00 +10°C° 0.3 mm 1 m/S 752 mmHg 88%
12:00 +10°C° 0.3 mm 1 m/S 752 mmHg 87%
13:00 +10°C° 0.3 mm 1 m/S 752 mmHg 86%
14:00 +11°C° 0.3 mm 1 m/S 752 mmHg 86%
15:00 +11°C° 0.1 mm 1 m/S 752 mmHg 83%
16:00 +10°C° 0.1 mm 2 m/S 752 mmHg 81%
17:00 +12°C° 0.1 mm 2 m/S 752 mmHg 79%
18:00 +10°C° 0 mm 2 m/S 752 mmHg 83%
19:00 +9°C° 0 mm 2 m/S 752 mmHg 87%
20:00 +8°C° 0 mm 2 m/S 752 mmHg 92%
21:00 +8°C° 0 mm 2 m/S 752 mmHg 92%
22:00 +7°C° 0 mm 2 m/S 752 mmHg 93%
23:00 +7°C° 0 mm 2 m/S 752 mmHg 94%

19 April, Montag

Zeit Temperatur Niederschläge Wind Luftdruck Luftfeuchtigkeit
00:00 +7°C° 0 mm 2 m/S 752 mmHg 95%
01:00 +7°C° 0 mm 2 m/S 752 mmHg 96%
02:00 +6°C° 0 mm 2 m/S 752 mmHg 97%
03:00 +6°C° 0 mm 2 m/S 752 mmHg 97%
04:00 +7°C° 0 mm 2 m/S 752 mmHg 97%
05:00 +7°C° 0 mm 3 m/S 752 mmHg 97%
06:00 +8°C° 0 mm 3 m/S 751 mmHg 93%
07:00 +7°C° 0 mm 4 m/S 751 mmHg 90%
08:00 +8°C° 0 mm 5 m/S 751 mmHg 87%
09:00 +9°C° 0.3 mm 5 m/S 751 mmHg 86%
10:00 +9°C° 0.3 mm 5 m/S 751 mmHg 85%
11:00 +9°C° 0.3 mm 5 m/S 751 mmHg 84%
12:00 +10°C° 0.1 mm 5 m/S 750 mmHg 77%
13:00 +11°C° 0.1 mm 6 m/S 750 mmHg 69%
14:00 +14°C° 0.1 mm 7 m/S 749 mmHg 62%
15:00 +12°C° 0.1 mm 7 m/S 749 mmHg 63%
16:00 +12°C° 0.1 mm 7 m/S 749 mmHg 65%
17:00 +11°C° 0.1 mm 7 m/S 748 mmHg 67%
18:00 +11°C° 0.2 mm 6 m/S 748 mmHg 70%
19:00 +10°C° 0.2 mm 6 m/S 748 mmHg 73%
20:00 +9°C° 0.2 mm 5 m/S 747 mmHg 76%
21:00 +9°C° 0.3 mm 6 m/S 747 mmHg 79%
22:00 +9°C° 0.3 mm 6 m/S 746 mmHg 82%
23:00 +8°C° 0.3 mm 6 m/S 746 mmHg 84%

20 April, Dienstag

Zeit Temperatur Niederschläge Wind Luftdruck Luftfeuchtigkeit
00:00 +8°C° 0.2 mm 7 m/S 745 mmHg 84%
01:00 +8°C° 0.2 mm 7 m/S 745 mmHg 84%
02:00 +8°C° 0.2 mm 7 m/S 744 mmHg 83%
03:00 +6°C° 0.7 mm 8 m/S 744 mmHg 85%
04:00 +6°C° 0.7 mm 8 m/S 743 mmHg 87%
05:00 +6°C° 0.7 mm 8 m/S 742 mmHg 90%
06:00 +5°C° 0.9 mm 8 m/S 742 mmHg 89%
07:00 +5°C° 0.9 mm 8 m/S 741 mmHg 89%
08:00 +4°C° 0.9 mm 8 m/S 741 mmHg 89%
09:00 +4°C° 0.6 mm 8 m/S 740 mmHg 91%
10:00 +2°C° 0.6 mm 8 m/S 740 mmHg 93%
11:00 +1°C° 0.6 mm 8 m/S 739 mmHg 95%
12:00 +1°C° 0.6 mm 8 m/S 738 mmHg 96%
13:00 +1°C° 0.6 mm 8 m/S 738 mmHg 96%
14:00 +1°C° 0.6 mm 8 m/S 737 mmHg 96%
15:00 0°C° 1.7 mm 7 m/S 737 mmHg 96%
16:00 0°C° 1.7 mm 7 m/S 736 mmHg 96%
17:00 0°C° 1.7 mm 7 m/S 736 mmHg 96%
18:00 0°C° 1.7 mm 7 m/S 736 mmHg 96%
19:00 +1°C° 1.7 mm 6 m/S 735 mmHg 96%
20:00 +1°C° 1.7 mm 6 m/S 735 mmHg 96%
21:00 +2°C° 0.2 mm 6 m/S 734 mmHg 96%
22:00 +3°C° 0.2 mm 6 m/S 734 mmHg 96%
23:00 +5°C° 0.2 mm 5 m/S 734 mmHg 96%
Mehr zeigen

Wir brauchen deine Erlaubnis

Meteoprog und unser Service Anbieter werden persönliche Daten aufbewahren, so wie Cookies, Geräte Bezeichnung oder ähnliche Technologien von deinem Gerät und Prozess, so wie Persönliche Daten Inhalte und Werbungen, genauso wie social Media und den Verkehr zu analysieren.

  • Aufbewahrung und/oder Zugang zu deiner Geräte Informationen.

    Cookies, Geräte Bezeichnung oder andere Informationen, können aufbewahrt oder Zugang zu deinem Gerät erhalten, für den Grund, der oben angegeben wird.

  • Personalisierte Werbung und Inhalte, Messungen, Einblick in das Publikum und Produkt Entwicklung.

    Werbungen und Inhalte können personalisiert werden, basierend auf ein Profil. Mehr Daten können besser personalisierte Werbungen und Inhalte hinzufügen. Werbung und Inhalte können gezeigt und gemessen werden. Einblicke über das Publikum, welche die Werbung gesehen haben und den Inhalt, können abgeleitet werden. So wie Daten können genutzt werden, um es zu verbessern oder die Benutzer Erfahrung zu verbessern das System und die Software.

Wenn du “Ich stimme zu” klickst, erlaubst du uns, die Cookies zu benutzen die Geräte Bezeichnung, den Web oder ähnliche Technologien zu benutzen. Deine Settings, können in deinem Gerät bei deinem Browser geändert werden.

Für den bestimmten Zweck, berechtigten Interessen beruhen darauf, mehr als auf den Inhalt. Du kannst mehr darüber in unseren Privaten und Cookie Politik lesen.